Location: ??????
(31.2056°N, 45.3906°E)
Time: 16:50:46
(UTC+00:00)

ARGOS - Pass Details

Date: 09 April 2020
Orbit: 820 x 834 km, 98.5° (Epoch: 26 May)

Event Time Altitude Azimuth Distance (km) Brightness Sun altitude
Exits shadow 15:58:03 - 133° (SE) 2,779 5.4 -8.1°
Reaches altitude 10° 15:59:05 10° 127° (SE) 2,427 5.0 -8.3°
Maximum altitude 16:03:36 28° 70° (ENE) 1,504 4.1 -9.3°
Drops below altitude 10° 16:08:06 10° 13° (NNE) 2,429 5.6 -10.2°
Sets 16:10:44 0° 2° (N) 3,364 6.5 -10.7°
